contact:dominique.lefevre@mio.osupytheas.fr, maurice.libes@osupytheas.fr, didier.mallarino@osupytheas.fr
Project:EMSO http://www.emso-fr.org/EMSO-France
Depth: 2436.0 m
Title:EMSO Ligure Ouest : Data MII capteur MICROCAT
DateTime_Computer,Latitude,Longitude,Temperature,Conductivity,Pressure,DateTime_Instrument
DateTime_Computer,Latitude,Longitude,degC,S m-1,dbar,DateTime_Instrument
2019-07-01T03:08:08Z,42.805,6.029,13.2955,4.59956,2469.69,2019-7-01T05:08:26Z
2019-07-01T03:11:11Z,42.805,6.029,13.2955,4.59958,2469.667,2019-7-01T05:11:29Z
2019-07-01T03:14:14Z,42.805,6.029,13.2954,4.59961,2469.713,2019-7-01T05:14:32Z
2019-07-01T03:17:17Z,42.805,6.029,13.2953,4.59961,2469.713,2019-7-01T05:17:34Z
2019-07-01T03:20:20Z,42.805,6.029,13.2957,4.59967,2469.667,2019-7-01T05:20:37Z
2019-07-01T03:23:23Z,42.805,6.029,13.2957,4.59967,2469.713,2019-7-01T05:23:40Z
2019-07-01T03:26:26Z,42.805,6.029,13.2953,4.59970,2469.727,2019-7-01T05:26:43Z
2019-07-01T03:29:29Z,42.805,6.029,13.2958,4.59962,2469.727,2019-7-01T05:29:46Z
2019-07-01T03:32:32Z,42.805,6.029,13.2956,4.59956,2469.713,2019-7-01T05:32:49Z
2019-07-01T03:35:35Z,42.805,6.029,13.2958,4.59982,2469.713,2019-7-01T05:35:52Z
2019-07-01T03:38:38Z,42.805,6.029,13.2955,4.59973,2469.704,2019-7-01T05:38:55Z
2019-07-01T03:41:41Z,42.805,6.029,13.2960,4.59966,2469.727,2019-7-01T05:41:58Z
2019-07-01T03:44:44Z,42.805,6.029,13.2956,4.59968,2469.76,2019-7-01T05:45:01Z
2019-07-01T03:47:47Z,42.805,6.029,13.2959,4.59979,2469.727,2019-7-01T05:48:04Z
2019-07-01T03:50:50Z,42.805,6.029,13.2961,4.59973,2469.713,2019-7-01T05:51:07Z
2019-07-01T03:53:53Z,42.805,6.029,13.2957,4.59964,2469.783,2019-7-01T05:54:10Z
2019-07-01T03:56:55Z,42.805,6.029,13.2963,4.59980,2469.713,2019-7-01T05:57:13Z
2019-07-01T03:59:58Z,42.805,6.029,13.2961,4.59973,2469.727,2019-7-01T06:00:16Z
2019-07-01T04:03:01Z,42.805,6.029,13.2958,4.59976,2469.75,2019-7-01T06:03:19Z
2019-07-01T04:06:04Z,42.805,6.029,13.2961,4.59987,2469.713,2019-7-01T06:06:22Z
2019-07-01T04:09:07Z,42.805,6.029,13.2957,4.59974,2469.773,2019-7-01T06:09:25Z
2019-07-01T04:12:10Z,42.805,6.029,13.2957,4.59973,2469.737,2019-7-01T06:12:27Z
2019-07-01T04:15:13Z,42.805,6.029,13.2960,4.59985,2469.737,2019-7-01T06:15:30Z
2019-07-01T04:18:16Z,42.805,6.029,13.2961,4.59977,2469.737,2019-7-01T06:18:33Z
2019-07-01T04:21:19Z,42.805,6.029,13.2961,4.59979,2469.746,2019-7-01T06:21:36Z
2019-07-01T04:24:22Z,42.805,6.029,13.2965,4.59981,2469.737,2019-7-01T06:24:39Z
2019-07-01T04:27:25Z,42.805,6.029,13.2957,4.59971,2469.773,2019-7-01T06:27:42Z
2019-07-01T04:30:28Z,42.805,6.029,13.2957,4.59973,2469.75,2019-7-01T06:30:45Z
2019-07-01T04:33:31Z,42.805,6.029,13.2961,4.59980,2469.75,2019-7-01T06:33:48Z
2019-07-01T04:36:34Z,42.805,6.029,13.2964,4.59980,2469.76,2019-7-01T06:36:51Z
2019-07-01T04:39:37Z,42.805,6.029,13.2965,4.59979,2469.76,2019-7-01T06:39:54Z
2019-07-01T04:42:40Z,42.805,6.029,13.2964,4.59979,2469.783,2019-7-01T06:42:57Z
2019-07-01T04:45:43Z,42.805,6.029,13.2961,4.59977,2469.797,2019-7-01T06:46:00Z
2019-07-01T04:48:45Z,42.805,6.029,13.2956,4.59974,2469.76,2019-7-01T06:49:03Z
2019-07-01T04:51:48Z,42.805,6.029,13.2967,4.59988,2469.783,2019-7-01T06:52:06Z
2019-07-01T04:54:51Z,42.805,6.029,13.2957,4.59985,2469.773,2019-7-01T06:55:09Z
2019-07-01T04:57:54Z,42.805,6.029,13.2960,4.59983,2469.797,2019-7-01T06:58:12Z
2019-07-01T05:00:57Z,42.805,6.029,13.2965,4.59985,2469.783,2019-7-01T07:01:15Z
2019-07-01T05:04:00Z,42.805,6.029,13.2957,4.59986,2469.783,2019-7-01T07:04:18Z
2019-07-01T05:07:03Z,42.805,6.029,13.2964,4.59980,2469.806,2019-7-01T07:07:20Z
2019-07-01T05:10:06Z,42.805,6.029,13.2964,4.59982,2469.76,2019-7-01T07:10:23Z
2019-07-01T05:13:09Z,42.805,6.029,13.2963,4.59991,2469.76,2019-7-01T07:13:26Z
2019-07-01T05:16:12Z,42.805,6.029,13.2963,4.59987,2469.783,2019-7-01T07:16:29Z
2019-07-01T05:19:15Z,42.805,6.029,13.2958,4.59976,2469.773,2019-7-01T07:19:32Z
2019-07-01T05:22:18Z,42.805,6.029,13.2961,4.59988,2469.773,2019-7-01T07:22:35Z
2019-07-01T05:25:21Z,42.805,6.029,13.2958,4.59973,2469.783,2019-7-01T07:25:38Z
2019-07-01T05:28:24Z,42.805,6.029,13.2961,4.59978,2469.783,2019-7-01T07:28:41Z
2019-07-01T05:31:27Z,42.805,6.029,13.2964,4.59977,2469.797,2019-7-01T07:31:44Z
2019-07-01T05:34:30Z,42.805,6.029,13.2961,4.59986,2469.76,2019-7-01T07:34:47Z
2019-07-01T05:37:33Z,42.805,6.029,13.2965,4.59978,2469.806,2019-7-01T07:37:50Z
2019-07-01T05:40:36Z,42.805,6.029,13.2965,4.59981,2469.783,2019-7-01T07:40:53Z
2019-07-01T05:43:38Z,42.805,6.029,13.2958,4.59974,2469.821,2019-7-01T07:43:56Z
2019-07-01T05:46:41Z,42.805,6.029,13.2964,4.59981,2469.797,2019-7-01T07:46:59Z
2019-07-01T05:49:44Z,42.805,6.029,13.2964,4.59979,2469.806,2019-7-01T07:50:02Z
2019-07-01T05:52:47Z,42.805,6.029,13.2960,4.59976,2469.806,2019-7-01T07:53:05Z
2019-07-01T05:55:50Z,42.805,6.029,13.2965,4.59978,2469.797,2019-7-01T07:56:08Z
2019-07-01T05:58:53Z,42.805,6.029,13.2965,4.59986,2469.783,2019-7-01T07:59:10Z
2019-07-01T06:01:56Z,42.805,6.029,13.2964,4.59984,2469.783,2019-7-01T08:02:13Z
2019-07-01T06:04:59Z,42.805,6.029,13.2963,4.59983,2469.783,2019-7-01T08:05:16Z
2019-07-01T06:08:02Z,42.805,6.029,13.2959,4.59981,2469.806,2019-7-01T08:08:19Z
2019-07-01T06:11:05Z,42.805,6.029,13.2962,4.59972,2469.821,2019-7-01T08:11:22Z
2019-07-01T06:14:08Z,42.805,6.029,13.2955,4.59974,2469.797,2019-7-01T08:14:25Z
2019-07-01T06:17:11Z,42.805,6.029,13.2971,4.59977,2469.783,2019-7-01T08:17:28Z
2019-07-01T06:20:14Z,42.805,6.029,13.2966,4.59959,2469.821,2019-7-01T08:20:31Z
2019-07-01T06:23:17Z,42.805,6.029,13.2963,4.59984,2469.821,2019-7-01T08:23:34Z
2019-07-01T06:26:20Z,42.805,6.029,13.2967,4.59983,2469.806,2019-7-01T08:26:37Z
2019-07-01T06:29:23Z,42.805,6.029,13.2958,4.59979,2469.797,2019-7-01T08:29:40Z
2019-07-01T06:32:26Z,42.805,6.029,13.2959,4.59968,2469.797,2019-7-01T08:32:43Z
2019-07-01T06:35:29Z,42.805,6.029,13.2961,4.59988,2469.783,2019-7-01T08:35:46Z
2019-07-01T06:38:31Z,42.805,6.029,13.2958,4.59961,2469.806,2019-7-01T08:38:49Z
2019-07-01T06:41:34Z,42.805,6.029,13.2957,4.59976,2469.844,2019-7-01T08:41:52Z
2019-07-01T06:44:37Z,42.805,6.029,13.2965,4.59979,2469.821,2019-7-01T08:44:55Z
2019-07-01T06:47:40Z,42.805,6.029,13.2958,4.59980,2469.806,2019-7-01T08:47:58Z
2019-07-01T06:50:43Z,42.805,6.029,13.2963,4.59987,2469.806,2019-7-01T08:51:01Z
2019-07-01T06:53:46Z,42.805,6.029,13.2963,4.59988,2469.797,2019-7-01T08:54:03Z
2019-07-01T06:56:49Z,42.805,6.029,13.2964,4.59980,2469.797,2019-7-01T08:57:06Z
2019-07-01T06:59:52Z,42.805,6.029,13.2962,4.59976,2469.783,2019-7-01T09:00:09Z
2019-07-01T07:02:55Z,42.805,6.029,13.2964,4.59981,2469.76,2019-7-01T09:03:12Z
2019-07-01T07:05:58Z,42.805,6.029,13.2963,4.59986,2469.783,2019-7-01T09:06:15Z
2019-07-01T07:09:01Z,42.805,6.029,13.2961,4.59978,2469.797,2019-7-01T09:09:18Z
2019-07-01T07:12:04Z,42.805,6.029,13.2964,4.59971,2469.821,2019-7-01T09:12:21Z
2019-07-01T07:15:07Z,42.805,6.029,13.2959,4.59974,2469.783,2019-7-01T09:15:24Z
2019-07-01T07:18:10Z,42.805,6.029,13.2960,4.59981,2469.797,2019-7-01T09:18:27Z
2019-07-01T07:21:13Z,42.805,6.029,13.2956,4.59968,2469.797,2019-7-01T09:21:30Z
2019-07-01T07:24:16Z,42.805,6.029,13.2965,4.59979,2469.821,2019-7-01T09:24:33Z
2019-07-01T07:27:19Z,42.805,6.029,13.2956,4.59971,2469.76,2019-7-01T09:27:36Z
2019-07-01T07:30:22Z,42.805,6.029,13.2960,4.59973,2469.797,2019-7-01T09:30:39Z
2019-07-01T07:33:24Z,42.805,6.029,13.2968,4.59986,2469.783,2019-7-01T09:33:42Z
2019-07-01T07:36:27Z,42.805,6.029,13.2958,4.59971,2469.783,2019-7-01T09:36:45Z
2019-07-01T07:39:30Z,42.805,6.029,13.2962,4.59961,2469.797,2019-7-01T09:39:48Z
2019-07-01T07:42:33Z,42.805,6.029,13.2959,4.59968,2469.773,2019-7-01T09:42:51Z
2019-07-01T07:45:36Z,42.805,6.029,13.2959,4.59971,2469.76,2019-7-01T09:45:54Z
2019-07-01T07:48:39Z,42.805,6.029,13.2958,4.59973,2469.76,2019-7-01T09:48:56Z
2019-07-01T07:51:42Z,42.805,6.029,13.2961,4.59981,2469.806,2019-7-01T09:51:59Z
2019-07-01T07:54:45Z,42.805,6.029,13.2964,4.59981,2469.797,2019-7-01T09:55:02Z
2019-07-01T07:57:48Z,42.805,6.029,13.2961,4.59980,2469.76,2019-7-01T09:58:05Z
2019-07-01T08:00:51Z,42.805,6.029,13.2968,4.59973,2469.773,2019-7-01T10:01:08Z
2019-07-01T08:03:54Z,42.805,6.029,13.2961,4.59988,2469.773,2019-7-01T10:04:11Z
2019-07-01T08:06:57Z,42.805,6.029,13.2957,4.59982,2469.76,2019-7-01T10:07:14Z
2019-07-01T08:10:00Z,42.805,6.029,13.2960,4.59979,2469.773,2019-7-01T10:10:17Z
2019-07-01T08:13:03Z,42.805,6.029,13.2958,4.59986,2469.773,2019-7-01T10:13:20Z
2019-07-01T08:16:06Z,42.805,6.029,13.2971,4.59987,2469.76,2019-7-01T10:16:23Z
2019-07-01T08:19:09Z,42.805,6.029,13.2967,4.59980,2469.76,2019-7-01T10:19:26Z
2019-07-01T08:22:12Z,42.805,6.029,13.2966,4.59973,2469.797,2019-7-01T10:22:29Z
2019-07-01T08:25:15Z,42.805,6.029,13.2962,4.59983,2469.75,2019-7-01T10:25:32Z
2019-07-01T08:28:17Z,42.805,6.029,13.2965,4.59984,2469.773,2019-7-01T10:28:35Z
2019-07-01T08:31:20Z,42.805,6.029,13.2960,4.59974,2469.76,2019-7-01T10:31:38Z
2019-07-01T08:34:23Z,42.805,6.029,13.2973,4.59979,2469.76,2019-7-01T10:34:41Z
2019-07-01T08:37:26Z,42.805,6.029,13.2959,4.59988,2469.76,2019-7-01T10:37:44Z
2019-07-01T08:40:29Z,42.805,6.029,13.2963,4.59979,2469.75,2019-7-01T10:40:47Z
2019-07-01T08:43:32Z,42.805,6.029,13.2961,4.59987,2469.773,2019-7-01T10:43:50Z
2019-07-01T08:46:35Z,42.805,6.029,13.2958,4.59975,2469.75,2019-7-01T10:46:52Z
2019-07-01T08:49:38Z,42.805,6.029,13.2961,4.59975,2469.737,2019-7-01T10:49:55Z
2019-07-01T08:52:41Z,42.805,6.029,13.2958,4.59973,2469.76,2019-7-01T10:52:58Z
2019-07-01T08:55:44Z,42.805,6.029,13.2964,4.59978,2469.773,2019-7-01T10:56:01Z
2019-07-01T08:58:47Z,42.805,6.029,13.2963,4.59981,2469.737,2019-7-01T10:59:04Z
2019-07-01T09:01:50Z,42.805,6.029,13.2964,4.59975,2469.76,2019-7-01T11:02:07Z
2019-07-01T09:04:53Z,42.805,6.029,13.2963,4.59968,2469.737,2019-7-01T11:05:10Z
2019-07-01T09:07:56Z,42.805,6.029,13.2964,4.59982,2469.713,2019-7-01T11:08:13Z
2019-07-01T09:10:59Z,42.805,6.029,13.2961,4.59975,2469.76,2019-7-01T11:11:16Z
2019-07-01T09:14:02Z,42.805,6.029,13.2962,4.59981,2469.75,2019-7-01T11:14:19Z
2019-07-01T09:17:05Z,42.805,6.029,13.2962,4.59978,2469.746,2019-7-01T11:17:22Z
2019-07-01T09:20:08Z,42.805,6.029,13.2964,4.59973,2469.737,2019-7-01T11:20:25Z
2019-07-01T09:23:11Z,42.805,6.029,13.2961,4.59981,2469.737,2019-7-01T11:23:28Z
2019-07-01T09:26:14Z,42.805,6.029,13.2958,4.59982,2469.737,2019-7-01T11:26:31Z
2019-07-01T09:29:16Z,42.805,6.029,13.2967,4.59988,2469.713,2019-7-01T11:29:34Z
2019-07-01T09:32:19Z,42.805,6.029,13.2960,4.59975,2469.713,2019-7-01T11:32:37Z
2019-07-01T09:35:22Z,42.805,6.029,13.2967,4.59983,2469.69,2019-7-01T11:35:40Z
2019-07-01T09:38:25Z,42.805,6.029,13.2958,4.59973,2469.75,2019-7-01T11:38:43Z
2019-07-01T09:41:28Z,42.805,6.029,13.2960,4.59974,2469.75,2019-7-01T11:41:46Z
2019-07-01T09:44:31Z,42.805,6.029,13.2963,4.59983,2469.773,2019-7-01T11:44:48Z
2019-07-01T09:47:34Z,42.805,6.029,13.2958,4.59984,2469.713,2019-7-01T11:47:51Z
2019-07-01T09:50:37Z,42.805,6.029,13.2964,4.59971,2469.713,2019-7-01T11:50:54Z
2019-07-01T09:53:40Z,42.805,6.029,13.2974,4.59984,2469.704,2019-7-01T11:53:57Z
2019-07-01T09:56:43Z,42.805,6.029,13.2963,4.59993,2469.727,2019-7-01T11:57:00Z
2019-07-01T09:59:46Z,42.805,6.029,13.2963,4.59976,2469.713,2019-7-01T12:00:03Z
2019-07-01T10:02:49Z,42.805,6.029,13.2960,4.59970,2469.69,2019-7-01T12:03:06Z
2019-07-01T10:05:52Z,42.805,6.029,13.2956,4.59968,2469.69,2019-7-01T12:06:09Z
2019-07-01T10:08:55Z,42.805,6.029,13.2963,4.59978,2469.667,2019-7-01T12:09:12Z
2019-07-01T10:11:58Z,42.805,6.029,13.2964,4.59980,2469.713,2019-7-01T12:12:15Z
2019-07-01T10:15:01Z,42.805,6.029,13.2968,4.59988,2469.704,2019-7-01T12:15:18Z
2019-07-01T10:18:04Z,42.805,6.029,13.2968,4.59980,2469.69,2019-7-01T12:18:21Z
2019-07-01T10:21:07Z,42.805,6.029,13.2965,4.59978,2469.704,2019-7-01T12:21:24Z
2019-07-01T10:24:10Z,42.805,6.029,13.2959,4.59970,2469.667,2019-7-01T12:24:27Z
2019-07-01T10:27:12Z,42.805,6.029,13.2956,4.59973,2469.713,2019-7-01T12:27:30Z
2019-07-01T10:30:15Z,42.805,6.029,13.2960,4.59969,2469.737,2019-7-01T12:30:33Z
2019-07-01T10:33:18Z,42.805,6.029,13.2958,4.59977,2469.69,2019-7-01T12:33:36Z
2019-07-01T10:36:21Z,42.805,6.029,13.2956,4.59977,2469.69,2019-7-01T12:36:39Z
2019-07-01T10:39:24Z,42.805,6.029,13.2961,4.59978,2469.69,2019-7-01T12:39:42Z
2019-07-01T10:42:27Z,42.805,6.029,13.2961,4.59981,2469.69,2019-7-01T12:42:45Z
2019-07-01T10:45:30Z,42.805,6.029,13.2958,4.59970,2469.69,2019-7-01T12:45:48Z
2019-07-01T10:48:33Z,42.805,6.029,13.2964,4.59969,2469.704,2019-7-01T12:48:50Z
2019-07-01T10:51:36Z,42.805,6.029,13.2962,4.59964,2469.713,2019-7-01T12:51:53Z
2019-07-01T10:54:39Z,42.805,6.029,13.2959,4.59978,2469.704,2019-7-01T12:54:56Z
2019-07-01T10:57:42Z,42.805,6.029,13.2958,4.59971,2469.713,2019-7-01T12:57:59Z
2019-07-01T11:00:45Z,42.805,6.029,13.2961,4.59970,2469.68,2019-7-01T13:01:02Z
2019-07-01T11:03:48Z,42.805,6.029,13.2960,4.59982,2469.69,2019-7-01T13:04:05Z
2019-07-01T11:06:51Z,42.805,6.029,13.2961,4.59981,2469.69,2019-7-01T13:07:08Z
2019-07-01T11:09:54Z,42.805,6.029,13.2958,4.59968,2469.704,2019-7-01T13:10:11Z
2019-07-01T11:12:57Z,42.805,6.029,13.2962,4.59963,2469.69,2019-7-01T13:13:14Z
2019-07-01T11:16:00Z,42.805,6.029,13.2958,4.59966,2469.704,2019-7-01T13:16:17Z
2019-07-01T11:19:03Z,42.805,6.029,13.2966,4.59963,2469.704,2019-7-01T13:19:20Z
2019-07-01T11:22:06Z,42.805,6.029,13.2956,4.59971,2469.69,2019-7-01T13:22:23Z
2019-07-01T11:25:08Z,42.805,6.029,13.2964,4.59990,2469.68,2019-7-01T13:25:26Z
2019-07-01T11:28:11Z,42.805,6.029,13.2962,4.59981,2469.727,2019-7-01T13:28:29Z
2019-07-01T11:31:14Z,42.805,6.029,13.2961,4.59966,2469.704,2019-7-01T13:31:32Z
2019-07-01T11:34:17Z,42.805,6.029,13.2958,4.59966,2469.657,2019-7-01T13:34:35Z
2019-07-01T11:37:20Z,42.805,6.029,13.2959,4.59976,2469.69,2019-7-01T13:37:38Z
2019-07-01T11:40:23Z,42.805,6.029,13.2957,4.59974,2469.69,2019-7-01T13:40:41Z
2019-07-01T11:43:26Z,42.805,6.029,13.2963,4.59979,2469.667,2019-7-01T13:43:43Z
2019-07-01T11:46:29Z,42.805,6.029,13.2958,4.59976,2469.667,2019-7-01T13:46:46Z
2019-07-01T11:49:32Z,42.805,6.029,13.2967,4.59979,2469.676,2019-7-01T13:49:49Z
2019-07-01T11:52:35Z,42.805,6.029,13.2958,4.59976,2469.68,2019-7-01T13:52:52Z
2019-07-01T11:55:38Z,42.805,6.029,13.2958,4.59975,2469.667,2019-7-01T13:55:55Z
2019-07-01T11:58:41Z,42.805,6.029,13.2957,4.59978,2469.68,2019-7-01T13:58:58Z
2019-07-01T12:01:44Z,42.805,6.029,13.2960,4.59971,2469.657,2019-7-01T14:02:01Z
2019-07-01T12:04:47Z,42.805,6.029,13.2961,4.59964,2469.667,2019-7-01T14:05:04Z
2019-07-01T12:07:50Z,42.805,6.029,13.2957,4.59971,2469.667,2019-7-01T14:08:07Z
2019-07-01T12:10:53Z,42.805,6.029,13.2961,4.59976,2469.69,2019-7-01T14:11:10Z
2019-07-01T12:13:56Z,42.805,6.029,13.2959,4.59971,2469.68,2019-7-01T14:14:13Z
2019-07-01T12:16:59Z,42.805,6.029,13.2961,4.59970,2469.667,2019-7-01T14:17:16Z
2019-07-01T12:20:02Z,42.805,6.029,13.2964,4.59969,2469.68,2019-7-01T14:20:19Z
2019-07-01T12:23:05Z,42.805,6.029,13.2959,4.59964,2469.667,2019-7-01T14:23:22Z
2019-07-01T12:26:07Z,42.805,6.029,13.2965,4.59976,2469.704,2019-7-01T14:26:25Z
2019-07-01T12:29:10Z,42.805,6.029,13.2963,4.59975,2469.704,2019-7-01T14:29:28Z
2019-07-01T12:32:13Z,42.805,6.029,13.2961,4.59972,2469.643,2019-7-01T14:32:31Z
2019-07-01T12:35:16Z,42.805,6.029,13.2957,4.59969,2469.643,2019-7-01T14:35:34Z
2019-07-01T12:38:19Z,42.805,6.029,13.2962,4.59975,2469.667,2019-7-01T14:38:37Z
2019-07-01T12:41:22Z,42.805,6.029,13.2966,4.59972,2469.667,2019-7-01T14:41:40Z
2019-07-01T12:44:25Z,42.805,6.029,13.2960,4.59971,2469.667,2019-7-01T14:44:42Z
2019-07-01T12:47:28Z,42.805,6.029,13.2957,4.59974,2469.69,2019-7-01T14:47:45Z
2019-07-01T12:50:31Z,42.805,6.029,13.2960,4.59960,2469.69,2019-7-01T14:50:48Z
2019-07-01T12:53:34Z,42.805,6.029,13.2957,4.59969,2469.667,2019-7-01T14:53:51Z
2019-07-01T12:56:37Z,42.805,6.029,13.2968,4.59981,2469.667,2019-7-01T14:56:54Z
2019-07-01T12:59:40Z,42.805,6.029,13.2956,4.59971,2469.69,2019-7-01T14:59:57Z
2019-07-01T13:02:43Z,42.805,6.029,13.2957,4.59965,2469.713,2019-7-01T15:03:00Z
2019-07-01T13:05:46Z,42.805,6.029,13.2961,4.59958,2469.69,2019-7-01T15:06:03Z
2019-07-01T13:08:49Z,42.805,6.029,13.2962,4.59973,2469.653,2019-7-01T15:09:06Z
2019-07-01T13:11:52Z,42.805,6.029,13.2958,4.59967,2469.68,2019-7-01T15:12:09Z
2019-07-01T13:14:55Z,42.805,6.029,13.2961,4.59966,2469.68,2019-7-01T15:15:12Z
2019-07-01T13:17:58Z,42.805,6.029,13.2970,4.59968,2469.69,2019-7-01T15:18:15Z
2019-07-01T13:21:01Z,42.805,6.029,13.2967,4.59976,2469.69,2019-7-01T15:21:18Z
2019-07-01T13:24:03Z,42.805,6.029,13.2961,4.59973,2469.713,2019-7-01T15:24:21Z
2019-07-01T13:27:06Z,42.805,6.029,13.2961,4.59981,2469.69,2019-7-01T15:27:24Z
2019-07-01T13:30:09Z,42.805,6.029,13.2962,4.59973,2469.69,2019-7-01T15:30:27Z
2019-07-01T13:33:12Z,42.805,6.029,13.2961,4.59968,2469.69,2019-7-01T15:33:30Z
2019-07-01T13:36:15Z,42.805,6.029,13.2966,4.59986,2469.727,2019-7-01T15:36:33Z
2019-07-01T13:39:18Z,42.805,6.029,13.2963,4.59984,2469.69,2019-7-01T15:39:36Z
2019-07-01T13:42:21Z,42.805,6.029,13.2961,4.59986,2469.713,2019-7-01T15:42:38Z
2019-07-01T13:45:24Z,42.805,6.029,13.2963,4.59978,2469.704,2019-7-01T15:45:41Z
2019-07-01T13:48:27Z,42.805,6.029,13.2959,4.59975,2469.727,2019-7-01T15:48:44Z
2019-07-01T13:51:30Z,42.805,6.029,13.2961,4.59964,2469.713,2019-7-01T15:51:47Z
2019-07-01T13:54:33Z,42.805,6.029,13.2958,4.59968,2469.69,2019-7-01T15:54:50Z
2019-07-01T13:57:36Z,42.805,6.029,13.2965,4.59980,2469.713,2019-7-01T15:57:53Z
2019-07-01T14:00:39Z,42.805,6.029,13.2957,4.59966,2469.727,2019-7-01T16:00:56Z
2019-07-01T14:03:42Z,42.805,6.029,13.2957,4.59963,2469.727,2019-7-01T16:03:59Z
2019-07-01T14:06:45Z,42.805,6.029,13.2957,4.59967,2469.713,2019-7-01T16:07:02Z
2019-07-01T14:09:48Z,42.805,6.029,13.2961,4.59973,2469.713,2019-7-01T16:10:05Z
2019-07-01T14:12:51Z,42.805,6.029,13.2957,4.59976,2469.69,2019-7-01T16:13:08Z
2019-07-01T14:15:54Z,42.805,6.029,13.2965,4.59980,2469.713,2019-7-01T16:16:11Z
2019-07-01T14:18:57Z,42.805,6.029,13.2965,4.59983,2469.737,2019-7-01T16:19:14Z
2019-07-01T14:21:59Z,42.805,6.029,13.2959,4.59968,2469.75,2019-7-01T16:22:17Z
2019-07-01T14:25:02Z,42.805,6.029,13.2954,4.59962,2469.727,2019-7-01T16:25:20Z
2019-07-01T14:28:05Z,42.805,6.029,13.2960,4.59967,2469.737,2019-7-01T16:28:23Z
2019-07-01T14:31:08Z,42.805,6.029,13.2964,4.59974,2469.75,2019-7-01T16:31:26Z
2019-07-01T14:34:11Z,42.805,6.029,13.2961,4.59962,2469.76,2019-7-01T16:34:29Z
2019-07-01T14:37:14Z,42.805,6.029,13.2960,4.59973,2469.737,2019-7-01T16:37:32Z
2019-07-01T14:40:17Z,42.805,6.029,13.2958,4.59968,2469.76,2019-7-01T16:40:34Z
2019-07-01T14:43:20Z,42.805,6.029,13.2964,4.59977,2469.737,2019-7-01T16:43:37Z
2019-07-01T14:46:23Z,42.805,6.029,13.2963,4.59994,2469.76,2019-7-01T16:46:40Z
2019-07-01T14:49:26Z,42.805,6.029,13.2960,4.59975,2469.76,2019-7-01T16:49:43Z
2019-07-01T14:52:29Z,42.805,6.029,13.2958,4.59973,2469.76,2019-7-01T16:52:46Z
2019-07-01T14:55:32Z,42.805,6.029,13.2964,4.59973,2469.773,2019-7-01T16:55:49Z
2019-07-01T14:58:35Z,42.805,6.029,13.2955,4.59969,2469.783,2019-7-01T16:58:52Z
2019-07-01T15:01:38Z,42.805,6.029,13.2964,4.59980,2469.773,2019-7-01T17:01:55Z
2019-07-01T15:04:41Z,42.805,6.029,13.2957,4.59979,2469.797,2019-7-01T17:04:58Z
2019-07-01T15:07:44Z,42.805,6.029,13.2962,4.59976,2469.783,2019-7-01T17:08:01Z
2019-07-01T15:10:47Z,42.805,6.029,13.2963,4.59973,2469.783,2019-7-01T17:11:04Z
2019-07-01T15:13:50Z,42.805,6.029,13.2960,4.59969,2469.773,2019-7-01T17:14:07Z
2019-07-01T15:16:53Z,42.805,6.029,13.2956,4.59974,2469.783,2019-7-01T17:17:10Z
2019-07-01T15:19:55Z,42.805,6.029,13.2958,4.59970,2469.783,2019-7-01T17:20:13Z
2019-07-01T15:22:58Z,42.805,6.029,13.2957,4.59979,2469.821,2019-7-01T17:23:16Z
2019-07-01T15:26:01Z,42.805,6.029,13.2961,4.59974,2469.783,2019-7-01T17:26:19Z
2019-07-01T15:29:04Z,42.805,6.029,13.2963,4.59955,2469.806,2019-7-01T17:29:22Z
2019-07-01T15:32:07Z,42.805,6.029,13.2959,4.59978,2469.821,2019-7-01T17:32:25Z
2019-07-01T15:35:10Z,42.805,6.029,13.2963,4.59968,2469.806,2019-7-01T17:35:28Z
2019-07-01T15:38:13Z,42.805,6.029,13.2967,4.59976,2469.806,2019-7-01T17:38:31Z
2019-07-01T15:41:16Z,42.805,6.029,13.2957,4.59976,2469.797,2019-7-01T17:41:33Z
2019-07-01T15:44:19Z,42.805,6.029,13.2965,4.59992,2469.783,2019-7-01T17:44:36Z
2019-07-01T15:47:22Z,42.805,6.029,13.2963,4.59979,2469.844,2019-7-01T17:47:39Z
2019-07-01T15:50:25Z,42.805,6.029,13.2958,4.59957,2469.83,2019-7-01T17:50:42Z
2019-07-01T15:53:28Z,42.805,6.029,13.2959,4.59967,2469.83,2019-7-01T17:53:45Z
2019-07-01T15:56:31Z,42.805,6.029,13.2964,4.59971,2469.806,2019-7-01T17:56:48Z
2019-07-01T15:59:34Z,42.805,6.029,13.2960,4.59979,2469.83,2019-7-01T17:59:51Z
2019-07-01T16:02:37Z,42.805,6.029,13.2964,4.59981,2469.853,2019-7-01T18:02:54Z
2019-07-01T16:05:40Z,42.805,6.029,13.2962,4.59979,2469.867,2019-7-01T18:05:57Z
2019-07-01T16:08:43Z,42.805,6.029,13.2958,4.59967,2469.853,2019-7-01T18:09:00Z
2019-07-01T16:11:46Z,42.805,6.029,13.2960,4.59981,2469.853,2019-7-01T18:12:03Z
2019-07-01T16:14:49Z,42.805,6.029,13.2956,4.59968,2469.83,2019-7-01T18:15:06Z
2019-07-01T16:17:51Z,42.805,6.029,13.2957,4.59973,2469.89,2019-7-01T18:18:09Z
2019-07-01T16:20:54Z,42.805,6.029,13.2958,4.59971,2469.876,2019-7-01T18:21:12Z
2019-07-01T16:23:57Z,42.805,6.029,13.2964,4.59973,2469.867,2019-7-01T18:24:15Z
2019-07-01T16:27:00Z,42.805,6.029,13.2957,4.59963,2469.853,2019-7-01T18:27:18Z
2019-07-01T16:30:03Z,42.805,6.029,13.2957,4.59972,2469.853,2019-7-01T18:30:21Z
2019-07-01T16:33:06Z,42.805,6.029,13.2961,4.59968,2469.89,2019-7-01T18:33:24Z
2019-07-01T16:36:09Z,42.805,6.029,13.2959,4.59969,2469.89,2019-7-01T18:36:26Z
2019-07-01T16:39:12Z,42.805,6.029,13.2959,4.59968,2469.876,2019-7-01T18:39:29Z
2019-07-01T16:42:15Z,42.805,6.029,13.2955,4.59970,2469.914,2019-7-01T18:42:32Z
2019-07-01T16:45:18Z,42.805,6.029,13.2955,4.59967,2469.876,2019-7-01T18:45:35Z
2019-07-01T16:48:21Z,42.805,6.029,13.2957,4.59974,2469.9,2019-7-01T18:48:38Z
2019-07-01T16:51:24Z,42.805,6.029,13.2962,4.59969,2469.876,2019-7-01T18:51:41Z
2019-07-01T16:54:27Z,42.805,6.029,13.2967,4.59984,2469.9,2019-7-01T18:54:44Z
2019-07-01T16:57:30Z,42.805,6.029,13.2964,4.59972,2469.876,2019-7-01T18:57:47Z
2019-07-01T17:00:33Z,42.805,6.029,13.2957,4.59972,2469.937,2019-7-01T19:00:50Z
2019-07-01T17:03:36Z,42.805,6.029,13.2958,4.59969,2469.914,2019-7-01T19:03:53Z
2019-07-01T17:06:39Z,42.805,6.029,13.2955,4.59975,2469.9,2019-7-01T19:06:56Z
2019-07-01T17:09:42Z,42.805,6.029,13.2960,4.59963,2469.9,2019-7-01T19:09:59Z
2019-07-01T17:12:45Z,42.805,6.029,13.2964,4.59979,2469.9,2019-7-01T19:13:02Z
2019-07-01T17:15:48Z,42.805,6.029,13.2966,4.59973,2469.9,2019-7-01T19:16:05Z
2019-07-01T17:18:50Z,42.805,6.029,13.2966,4.59983,2469.96,2019-7-01T19:19:08Z
2019-07-01T17:21:53Z,42.805,6.029,13.2963,4.59970,2469.923,2019-7-01T19:22:11Z
2019-07-01T17:24:56Z,42.805,6.029,13.2959,4.59968,2469.923,2019-7-01T19:25:14Z
2019-07-01T17:27:59Z,42.805,6.029,13.2964,4.59976,2469.937,2019-7-01T19:28:17Z
2019-07-01T17:31:02Z,42.805,6.029,13.2963,4.59979,2469.923,2019-7-01T19:31:20Z
2019-07-01T17:34:05Z,42.805,6.029,13.2973,4.59979,2469.923,2019-7-01T19:34:23Z
2019-07-01T17:37:08Z,42.805,6.029,13.2961,4.59962,2469.914,2019-7-01T19:37:26Z
2019-07-01T17:40:11Z,42.805,6.029,13.2955,4.59971,2469.937,2019-7-01T19:40:28Z
2019-07-01T17:43:14Z,42.805,6.029,13.2959,4.59973,2469.96,2019-7-01T19:43:31Z
2019-07-01T17:46:17Z,42.805,6.029,13.2957,4.59972,2469.947,2019-7-01T19:46:34Z
2019-07-01T17:49:20Z,42.805,6.029,13.2962,4.59973,2469.914,2019-7-01T19:49:37Z
2019-07-01T17:52:23Z,42.805,6.029,13.2958,4.59967,2469.97,2019-7-01T19:52:40Z
2019-07-01T17:55:26Z,42.805,6.029,13.2956,4.59970,2469.9,2019-7-01T19:55:43Z
2019-07-01T17:58:29Z,42.805,6.029,13.2958,4.59971,2469.923,2019-7-01T19:58:46Z
2019-07-01T18:01:32Z,42.805,6.029,13.2958,4.59979,2469.984,2019-7-01T20:01:49Z
2019-07-01T18:04:35Z,42.805,6.029,13.2961,4.59971,2469.947,2019-7-01T20:04:52Z
2019-07-01T18:07:38Z,42.805,6.029,13.2958,4.59979,2469.96,2019-7-01T20:07:55Z
2019-07-01T18:10:41Z,42.805,6.029,13.2960,4.59970,2469.933,2019-7-01T20:10:58Z
2019-07-01T18:13:44Z,42.805,6.029,13.2961,4.59968,2469.96,2019-7-01T20:14:01Z
2019-07-01T18:16:46Z,42.805,6.029,13.2964,4.59984,2469.937,2019-7-01T20:17:04Z
2019-07-01T18:19:49Z,42.805,6.029,13.2961,4.59979,2469.96,2019-7-01T20:20:07Z